Location: Brunembert
(50.7122°N, 1.8935°E)
Time: 04:22:22
(UTC+00:00)

CZ-4C R/B - Pass Details

Date: 22 April 2021
Orbit: 612 x 1390 km, 63.4° (Epoch: 06 May)

Event Time Altitude Azimuth Distance (km) Brightness Sun altitude
Rises 22:30:00 0° 304° (NW) 3,500 6.3 -24.4°
Reaches altitude 10° 22:32:39 10° 315° (NW) 2,678 5.7 -24.5°
Maximum altitude 22:38:16 31° 17° (NNE) 1,794 4.3 -24.8°
Drops below altitude 10° 22:44:52 10° 77° (ENE) 3,169 5.1 -25.1°
Sets 22:48:17 0° 87° (E) 4,241 5.7 -25.3°
